Вернуться в каталог

GLOBALSTAR M098

АктивенСвязьLEO
NORAD 100325·PAYLOAD·🇺🇸 United States

Запущен Aug 16, 2026 с Cape Canaveral Space Force Station

Loading…

Ближайшие Пролёты (ближайшие 24 часа)

TLE

СвежийSource: Space-Track

Эпоха: Sep 14, 2026, 21:10 UTC

1 A0325U 26185A   26257.88234498  .00000232  00000-0  81207-4 0  9999
2 A0325  51.9954 109.7390 0009907 329.4885  30.5494 14.63733207  4373

Отслеживайте GLOBALSTAR M098 в реальном времени с AllMySat

Download on the App Store